759  
ASUS46 KSGX 220111  
RWRSGX  
 
SAN DIEGO HOURLY WEATHER ROUNDUP  
NATIONAL WEATHER SERVICE SAN DIEGO CA  
600 PM PDT MON AUG 21 2017  
 
NOTE: "FAIR" INDICATES FEW OR NO CLOUDS BELOW 12,000 FEET WITH NO  
SIGNIFICANT WEATHER AND/OR S TO VISIBILITY
.  
 
CAZ042-043-060-061-PZZ750-775-220200-  
 
GREATER SAN DIEGO AREA  
 
CITY SKY/WX TMP DP RH WIND PRES REMARKS
 
SAN DIEGO AP MOSUNNY 75 61 61 NW10 29.96F  
NATIONAL CITY N/A 74 64 71 N6 29.97F  
IMPERIAL BEACH MOSUNNY 72 61 68 W13 29.96F  
BROWN FIELD SUNNY 72 63 73 W10 29.96F  
MIRAMAR MCAS MOSUNNY 77 59 53 NW10 29.96F  
MONTGOMERY FLD SUNNY 76 60 57 W10 29.96F  
GILLESPIE FLD SUNNY 79 61 53 W12 29.95  
 

 
 
NORTH SAN DIEGO COUNTY  
 
CITY SKY/WX TMP DP RH WIND PRES REMARKS
 
CAMP PENDLETON SUNNY 64 59 83 SW8 29.94F  
OCEANSIDE AP SUNNY 73 61 65 W12 29.94F  
OCEANSIDE HBR N/A 71 63 76 N9 29.98F  
VISTA N/A 74 63 68 W3 29.93S  
CARLSBAD SUNNY 71 61 70 W9 29.95F  
DEL MAR N/A 74 64 71 CALM 29.98S  
LA JOLLA SCRIP N/A 71 64 77 W9 29.95F  
FALLBROOK N/A 75 63 66 S1 29.95F  
ESCONDIDO N/A 75 62 63 W5 29.96F  
POWAY N/A 80 63 56 CALM 29.95F  
 

 
 
EAST SAN DIEGO COUNTY  
 
CITY SKY/WX TMP DP RH WIND PRES REMARKS
 
RAMONA SUNNY 78 61 55 W9 29.97F  
SANTEE LAKES N/A 77 63 61 W10 29.93F  
LA MESA N/A 76 63 62 W2 29.88F  
JAMUL N/A 76 64 66 CALM 29.94S  
DESCANSO N N/A 78 58 49 W2 29.84F  
CAMPO N/A 83 58 42 SW12 29.98S  
 

 
 
ORANGE COUNTY AND THE LOS ANGELES BASIN  
 
CITY SKY/WX TMP DP RH WIND PRES REMARKS
 
JOHN WAYNE AP SUNNY 74 61 63 SW8 29.94F  
LAKE FOREST FR N/A 79 58 49 W3 29.83F  
HUNTINGTON BCH N/A 73 65 76 W12 29.96F  
LOS ALAMITOS FAIR 80 61 53 W12 29.93F  
FULLERTON SUNNY 80 61 52 W6 29.93F  
LONG BEACH SUNNY 76 61 59 NW13 29.94F  
L.A. AP MOSUNNY 72 62 71 W14 29.96F  
L.A. DOWNTOWN SUNNY 76 61 59 W7 29.94F  
 

 
 
THE INLAND EMPIRE  
 
CITY SKY/WX TMP DP RH WIND PRES REMARKS
 
CORONA SUNNY 81 61 50 NW15 29.93F  
CHINO SUNNY 84 59 42 W14 29.94F  
ONTARIO MOSUNNY 84 57 39 W15 29.94S  
SAN BERNARDINO SUNNY 91 52 25 SW14 29.94 HAZE  
RIVERSIDE AP SUNNY 83 60 45 W15 29.93F  
MORENO VALLEY N/A 87 62 42 W7 28.09S  
MARCH ARB SUNNY 85 57 38 NW12 29.96S  
HORSETHIEF CYN N/A 85 51 30 NE9 29.93S  
PERRIS N/A 86 59 39 W5 29.95S  
HEMET EAST N/A 88 47 23 SW5 29.98S  
FRENCH VALLEY FAIR 81 57 44 SW8 29.96S  
TEMECULA N/A 84 61 46 CALM 29.97F  
 

 
 
SAN BERNARDINO AND RIVERSIDE COUNTY MOUNTAINS  
 
CITY SKY/WX TMP DP RH WIND PRES REMARKS
 
BIG BEAR AP SUNNY 70 36 28 SW3 30.26S  
PINE COVE N/A 70 47 43 CALM 29.92S  
 

 
 
SOUTHERN DESERT INCLUDING THE COACHELLA VALLEY  
 
CITY SKY/WX TMP DP RH WIND PRES REMARKS
 
PALM SPRINGS SUNNY 104 44 13 NW15 29.82F HX 99  
THOUSAND PALMS N/A 103 46 14 E2 29.77F HX 99  
PALM DESERT N/A 105 47 14 CALM 30.75F HX 101  
THERMAL SUNNY 102 46 15 SE9 29.75F HX 98  
BLYTHE SUNNY 103 50 17 E7 29.81F HX 100  
IMPERIAL AP MOSUNNY 103 47 15 W5 29.77F HX 99  
EL CENTRO NAS MOSUNNY 103 37 10 SE7 29.79F HX 97  
YUMA AZ SUNNY 103 51 17 VRB5 29.79F HX 100  
MEXICALI SUNNY 102 39 11 SE9 29.79F HX 97  
 

 
 
UPPER DESERT  
 
CITY SKY/WX TMP DP RH WIND PRES REMARKS
 
VICTORVILLE AP SUNNY 90 30 12 S21 29.99S  
HESPERIA N/A 83 46 27 SW7 29.97R  
PALMDALE SUNNY 89 43 20 SW16G24 29.96F  
LANCASTER SUNNY 88 43 20 SW21G28 29.97S  
EDWARDS AFB MOSUNNY 92 41 16 SW21G29 29.92S  
DAGGETT SUNNY 99 41 13 E15 29.89S  
29 PALMS N SUNNY 96 36 12 SE9 29.98S  
 

 
 
REGIONAL REPORTS  
 
CITY SKY/WX TMP DP RH WIND PRES REMARKS
 
SANTA BARBARA SUNNY 70 59 68 W13 29.96F  
SANDBERG SUNNY 79 42 26 S20G28 30.13F  
LAS VEGAS NV MOSUNNY 90 53 28 NE6 30.00F  
PHOENIX AZ MOSUNNY 101 48 16 W7 29.84F HX 97  
TIJUANA SUNNY 72 63 73 W7 29.98F  
ENSENADA NW N/A 71 32 24 W7 29.92F  
 

 
 
OFFSHORE ISLANDS  
 
CITY SKY/WX TMP DP RH WIND PRES REMARKS
 
CATALINA ARPT SUNNY 65 59 81 W10 29.99F  
SAN CLEMENTE I MOSUNNY 70 60 70 W10 29.98F  
SAN NICOLAS IS CLOUDY N/A N/A N/A SW8 29.98F  
 

 
 
MARINE AND OFFSHORE BUOY REPORTS  
 
STATION/POSITION SKY/WX TEMP WIND PRES VSBY SWELL
 
AIR SEA DIR/SP/G HT/PER/DIR  
(F) (DEG/KT/KT) (MB) (MI) (FT/S/D)  
TANNER BANKS 66 67 300/ 8/ 8 1015.0F 5/310/11  
S CLEMENTE BASIN 68 71 290/ 10/ 12 1014.5F 3/190/13  
SAN NICOLAS IS. 65 N/A 3/310/11  
SO. S. ROSA ISLA 64 65 250/ 6/ 8 1015.0F 5/240/13  
W. S. BARBARA CH 65 63 260/ 6/ 8 1015.1F 3/300/10  
M. S. BARBARA CH 66 68 270/ 12/ 14 1015.5F 2/230/ 9  
S. MONICA BASIN 71 270/ 10/ 12 1014.5F 2/210/13  
S PEDRO CHANNEL 69 N/A 2/170/13  
CMP PENDLETON NS 70 N/A 2/210/13  
OCEANSIDE OFFSHR 72 N/A 2/190/13  
TORREY PINES OTR 73 N/A 2/200/13  
SAN DIEGO BAY 75 1014.7F  
POINT LOMA SOUTH 69 N/A 2/180/13  
 

 
 
 
 
CLICK HERE TO GO TO PREVIOUS BULLETINS.

The Nexlab CA Page Main Text Page